Location: Newark
(49.8969°N, 3.3422°E)
Time: 23:45:34
(UTC+00:00)

deb Explorer IX - Pass Details

Date: 26 January 2020
Orbit: 549 x 1099 km, 38.8° (Epoch: 19 February)

Event Time Altitude Azimuth Distance (km) Brightness Sun altitude
Rises 20:47:02 0° 217° (SW) 3,695 ? -40.8°
Enters shadow 20:47:54 - 214° (SW) 3,441 ? -40.9°
Reaches altitude 10° 20:50:13 10° 203° (SSW) 2,820 - -41.2°
Maximum altitude 20:55:21 22° 156° (SSE) 2,135 - -42.0°
Drops below altitude 10° 21:00:41 10° 108° (ESE) 2,948 - -42.8°
Sets 21:04:05 0° 95° (E) 3,905 - -43.3°
